Dyersburg, TN

5:32 AM CDT on August 19, 2017 (GMT -0500)
Dyersburg Municipal

Weather History for KDYR - October, 2012

Change the Weather History Date:

Saturday, October 6, 2012

  Actual Average Record
Temperature  
Mean Temperature 50 °F -  
Max Temperature 57 °F 72 °F 89 °F (2007)
Min Temperature 42 °F 51 °F 39 °F (1999)
Degree Days  
Heating Degree Days 16    
Moisture  
Dew Point 35 °F    
Average Humidity 60    
Maximum Humidity 76    
Minimum Humidity 36    
Precipitation  
Precipitation 0.00 in - - ()
Sea Level Pressure  
Sea Level Pressure 30.20 in    
Wind  
Wind Speed 10 mph (North)    
Max Wind Speed 14 mph    
Max Gust Speed 21 mph    
Visibility 10 miles    
Events      
Averages and records for this station are not official NWS values.
T = Trace of Precipitation, MM = Missing Value Source: NWS Daily Summary

Daily Weather History Graph

Daily Weather History Graph

Search for Another Location

Airport or City:

Trip Planner

Search our weather history database for the weather conditions in past years. The results will help you decide how hot, cold, wet, or windy it might be!

Date:

Astronomy

Oct. 06, 2012 Rise Set
Actual Time 6:57 AM CDT 6:33 PM CDT
Civil Twilight 6:31 AM CDT 6:59 PM CDT
Nautical Twilight 6:01 AM CDT 7:28 PM CDT
Astronomical Twilight 5:32 AM CDT 7:58 PM CDT
Moon 10:57 PM CDT (10/6) 12:43 PM CDT (10/6)
Length of Visible Light 12h 27m
Length of Day
11h 36m
Waning Gibbous, 65% of the Moon is Illuminated
Oct 6
Waning Gibbous
Oct 8
Last Quarter
Oct 15
New
Oct 21
First Quarter
Oct 29
Full

Hourly Weather History & Observations

Time (CDT) Temp. Windchill Dew Point Humidity Pressure Visibility Wind Dir Wind Speed Gust Speed Precip Events Conditions
12:15 AM 44.6 °F 38.8 °F 37.4 °F 76% 30.17 in 10.0 mi North 11.5 mph - N/A   Overcast
12:35 AM 44.6 °F 38.4 °F 37.4 °F 76% 30.17 in 10.0 mi North 12.7 mph 17.3 mph N/A   Overcast
12:55 AM 46.4 °F 40.7 °F 37.4 °F 71% 30.17 in 10.0 mi North 12.7 mph - N/A   Overcast
1:15 AM 44.6 °F 38.8 °F 37.4 °F 76% 30.16 in 10.0 mi North 11.5 mph 17.3 mph N/A   Overcast
1:35 AM 44.6 °F 38.8 °F 37.4 °F 76% 30.17 in 10.0 mi North 11.5 mph - N/A   Overcast
1:55 AM 44.6 °F 38.8 °F 37.4 °F 76% 30.18 in 10.0 mi North 11.5 mph 17.3 mph N/A   Overcast
2:15 AM 44.6 °F 39.7 °F 37.4 °F 76% 30.18 in 10.0 mi North 9.2 mph - N/A   Overcast
2:35 AM 44.6 °F 39.7 °F 37.4 °F 76% 30.18 in 10.0 mi North 9.2 mph - N/A   Overcast
2:55 AM 44.6 °F 38.8 °F 37.4 °F 76% 30.17 in 10.0 mi North 11.5 mph - N/A   Overcast
3:35 AM 44.6 °F 39.7 °F 35.6 °F 71% 30.19 in 10.0 mi North 9.2 mph - N/A   Scattered Clouds
3:55 AM 44.6 °F 39.7 °F 35.6 °F 71% 30.20 in 10.0 mi North 9.2 mph - N/A   Scattered Clouds
4:35 AM 44.6 °F 38.4 °F 35.6 °F 71% 30.19 in 10.0 mi North 12.7 mph 16.1 mph N/A   Mostly Cloudy
4:55 AM 42.8 °F 38.0 °F 35.6 °F 76% 30.19 in 10.0 mi North 8.1 mph - N/A   Mostly Cloudy
5:15 AM 42.8 °F 37.5 °F 35.6 °F 76% 30.20 in 10.0 mi North 9.2 mph - N/A   Scattered Clouds
5:36 AM 42.8 °F 37.5 °F 33.8 °F 70% 30.21 in 10.0 mi North 9.2 mph - N/A   Partly Cloudy
5:55 AM 42.8 °F 38.0 °F 33.8 °F 70% 30.21 in 10.0 mi North 8.1 mph - N/A   Clear
6:15 AM 42.8 °F 38.0 °F 33.8 °F 70% 30.22 in 10.0 mi North 8.1 mph - N/A   Clear
6:35 AM 42.8 °F 38.6 °F 33.8 °F 70% 30.23 in 10.0 mi North 6.9 mph - N/A   Clear
6:55 AM 42.8 °F 39.3 °F 33.8 °F 70% 30.24 in 10.0 mi North 5.8 mph - N/A   Clear
7:15 AM 42.8 °F 39.3 °F 33.8 °F 70% 30.24 in 10.0 mi North 5.8 mph - N/A   Clear
7:35 AM 42.8 °F 38.0 °F 33.8 °F 70% 30.25 in 10.0 mi North 8.1 mph - N/A   Clear
7:56 AM 42.8 °F 38.6 °F 33.8 °F 70% 30.25 in 10.0 mi NNE 6.9 mph - N/A   Clear
8:35 AM 44.6 °F 39.7 °F 33.8 °F 66% 30.25 in 10.0 mi NNE 9.2 mph - N/A   Clear
8:55 AM 44.6 °F 38.8 °F 33.8 °F 66% 30.25 in 10.0 mi NNE 11.5 mph - N/A   Clear
9:15 AM 46.4 °F 41.5 °F 33.8 °F 62% 30.25 in 10.0 mi NNE 10.4 mph - N/A   Clear
9:35 AM 48.2 °F - 33.8 °F 58% 30.25 in 10.0 mi NNE 10.4 mph - N/A   Clear
9:55 AM 48.2 °F - 33.8 °F 58% 30.25 in 10.0 mi NNE 12.7 mph - N/A   Clear
10:15 AM 50.0 °F - 33.8 °F 54% 30.24 in 10.0 mi NE 12.7 mph - N/A   Clear
10:35 AM 51.8 °F - 32.0 °F 47% 30.22 in 10.0 mi NE 10.4 mph 20.7 mph N/A   Clear
10:55 AM 51.8 °F - 32.0 °F 47% 30.21 in 10.0 mi NNE 13.8 mph - N/A   Clear
11:15 AM 53.6 °F - 32.0 °F 44% 30.20 in 10.0 mi ENE 11.5 mph 16.1 mph N/A   Clear
11:35 AM 53.6 °F - 32.0 °F 44% 30.21 in 10.0 mi ENE 11.5 mph - N/A   Clear
11:55 AM 55.4 °F - 33.8 °F 44% 30.20 in 10.0 mi NE 10.4 mph - N/A   Clear
12:15 PM 55.4 °F - 32.0 °F 41% 30.19 in 10.0 mi NNE 12.7 mph - N/A   Clear
12:35 PM 55.4 °F - 33.8 °F 44% 30.20 in 10.0 mi NNE 10.4 mph 16.1 mph N/A   Clear
12:55 PM 55.4 °F - 32.0 °F 41% 30.21 in 10.0 mi North 12.7 mph - N/A   Clear
1:15 PM 57.2 °F - 32.0 °F 38% 30.20 in 10.0 mi North 8.1 mph - N/A   Clear
1:36 PM 55.4 °F - 30.2 °F 38% 30.19 in 10.0 mi NNE 9.2 mph 17.3 mph N/A   Clear
1:55 PM 55.4 °F - 32.0 °F 41% 30.19 in 10.0 mi North 10.4 mph - N/A   Clear
2:15 PM 57.2 °F - 32.0 °F 38% 30.19 in 10.0 mi North 12.7 mph 16.1 mph N/A   Clear
2:35 PM 57.2 °F - 32.0 °F 38% 30.18 in 10.0 mi NNE 11.5 mph 20.7 mph N/A   Mostly Cloudy
2:55 PM 57.2 °F - 30.2 °F 36% 30.17 in 10.0 mi NNE 8.1 mph - N/A   Mostly Cloudy
3:15 PM 55.4 °F - 33.8 °F 44% 30.18 in 10.0 mi North 8.1 mph - N/A   Overcast
3:36 PM 53.6 °F - 33.8 °F 47% 30.14 in 10.0 mi NNE 10.4 mph 16.1 mph N/A   Overcast
3:55 PM 53.6 °F - 33.8 °F 47% 30.16 in 10.0 mi North 11.5 mph - N/A   Overcast
4:15 PM 53.6 °F - 33.8 °F 47% 30.16 in 10.0 mi North 9.2 mph - N/A   Overcast
4:35 PM 53.6 °F - 35.6 °F 51% 30.15 in 10.0 mi North 10.4 mph - N/A   Overcast
4:55 PM 51.8 °F - 33.8 °F 50% 30.14 in 10.0 mi North 9.2 mph - N/A   Overcast
5:16 PM 51.8 °F - 33.8 °F 50% 30.17 in 10.0 mi North 10.4 mph 16.1 mph N/A   Overcast
5:35 PM 51.8 °F - 33.8 °F 50% 30.17 in 10.0 mi North 10.4 mph - N/A   Overcast
6:15 PM 50.0 °F - 35.6 °F 58% 30.15 in 5.0 mi NNE 6.9 mph - N/A   Overcast
6:35 PM 50.0 °F - 35.6 °F 58% 30.21 in 10.0 mi NNW 4.6 mph - N/A   Overcast
7:16 PM 48.2 °F - 37.4 °F 66% 30.19 in 10.0 mi North 4.6 mph - N/A   Overcast
7:35 PM 48.2 °F - 37.4 °F 66% 30.21 in 10.0 mi NW 4.6 mph - N/A   Overcast
7:55 PM 48.2 °F - 37.4 °F 66% 30.20 in 10.0 mi North 5.8 mph - N/A   Mostly Cloudy
8:15 PM 48.2 °F - 37.4 °F 66% 30.21 in 10.0 mi Calm Calm - N/A   Overcast
8:35 PM 48.2 °F - 37.4 °F 66% 30.21 in 10.0 mi North 3.5 mph - N/A   Overcast
8:55 PM 48.2 °F - 37.4 °F 66% 30.21 in 10.0 mi North 5.8 mph - N/A   Overcast
9:16 PM 48.2 °F - 37.4 °F 66% 30.21 in 10.0 mi North 3.5 mph - N/A   Overcast
9:35 PM 48.2 °F - 35.6 °F 62% 30.21 in 10.0 mi North 8.1 mph - N/A   Overcast
9:55 PM 48.2 °F - 35.6 °F 62% 30.20 in 10.0 mi North 10.4 mph - N/A   Overcast
10:15 PM 48.2 °F - 35.6 °F 62% 30.20 in 10.0 mi North 8.1 mph - N/A   Overcast
10:35 PM 48.2 °F - 35.6 °F 62% 30.20 in 10.0 mi North 8.1 mph - N/A   Mostly Cloudy
10:55 PM 48.2 °F - 35.6 °F 62% 30.22 in 10.0 mi North 8.1 mph - N/A   Overcast
11:16 PM 48.2 °F - 35.6 °F 62% 30.22 in 10.0 mi North 11.5 mph - N/A   Overcast
11:35 PM 48.2 °F - 35.6 °F 62% 30.22 in 10.0 mi North 6.9 mph - N/A   Overcast
11:55 PM 48.2 °F - 35.6 °F 62% 30.21 in 10.0 mi NNE 6.9 mph - N/A   Overcast